QPF
0.05 0.05 0.11 0.14 0.15 0.14 0.14 0.15 0.17 0.08 0.05 0.05 0.03 0.02 0.03 0.04 0.06 0.06 0.11 0.14 0.05 0.02 0.02 0.03 0.03 0.03 0.03 0.02 0.02 0.01 0.01 0.00 0.00 0.00 0.00 0.01 0.00 0.00 0.00 0.00 0.00 0.01 0.01 0.01 0.00 0.00 0.00 0.00 0.00
0.03 0.05 0.08 0.13 0.11 0.13 0.14 0.11 0.09 0.06 0.06 0.04 0.02 0.01 0.01 0.02 0.04 0.06 0.13 0.14 0.04 0.03 0.02 0.02 0.03 0.03 0.02 0.02 0.01 0.01 0.01 0.00 0.00 0.00 0.00 0.00 0.00 0.00 0.00 0.00 0.00 0.00 0.00 0.00 0.00 0.01 0.01 0.01 0.01
0.05 0.08 0.13 0.15 0.09 0.10 0.15 0.07 0.03 0.03 0.03 0.02 0.02 0.01 0.01 0.03 0.04 0.04 0.08 0.07 0.03 0.04 0.03 0.03 0.03 0.02 0.01 0.02 0.01 0.01 0.00 0.00 0.00 0.00 0.00 0.00 0.00 0.00 0.00 0.00 0.00 0.00 0.00 0.01 0.01 0.01 0.01 0.02 0.02
0.07 0.12 0.16 0.15 0.10 0.09 0.07 0.04 0.03 0.03 0.03 0.01 0.02 0.02 0.04 0.04 0.03 0.03 0.05 0.03 0.01 0.01 0.01 0.02 0.02 0.02 0.02 0.02 0.01 0.01 0.00 0.00 0.00 0.00 0.00 0.00 0.00 0.00 0.00 0.00 0.00 0.00 0.00 0.00 0.00 0.00 0.00 0.00 0.00
0.12 0.15 0.14 0.12 0.12 0.11 0.06 0.03 0.03 0.03 0.03 0.02 0.02 0.03 0.05 0.06 0.04 0.03 0.02 0.01 0.00 0.00 0.00 0.01 0.02 0.02 0.01 0.01 0.01 0.01 0.01 0.00 0.00 0.00 0.00 0.00 0.00 0.00 0.00 0.00 0.00 0.00 0.00 0.00 0.00 0.00 0.00 0.00 0.00
0.16 0.15 0.14 0.12 0.15 0.13 0.09 0.03 0.02 0.02 0.03 0.03 0.02 0.03 0.03 0.05 0.04 0.02 0.01 0.00 0.00 0.00 0.00 0.00 0.01 0.02 0.01 0.01 0.01 0.01 0.00 0.00 0.00 0.00 0.00 0.00 0.00 0.00 0.00 0.00 0.00 0.00 0.00 0.00 0.00 0.00 0.00 0.00 0.00
0.18 0.16 0.16 0.14 0.12 0.12 0.08 0.04 0.02 0.03 0.03 0.02 0.01 0.02 0.03 0.03 0.02 0.02 0.01 0.00 0.00 0.00 0.00 0.00 0.01 0.01 0.01 0.02 0.01 0.01 0.00 0.00 0.00 0.00 0.00 0.00 0.00 0.00 0.00 0.00 0.00 0.00 0.00 0.00 0.00 0.00 0.00 0.00 0.00
0.17 0.18 0.15 0.13 0.11 0.09 0.06 0.05 0.03 0.04 0.04 0.02 0.01 0.01 0.01 0.01 0.01 0.01 0.00 0.00 0.00 0.00 0.00 0.00 0.00 0.00 0.00 0.00 0.01 0.00 0.00 0.00 0.00 0.00 0.00 0.00 0.00 0.00 0.00 0.00 0.00 0.00 0.00 0.00 0.00 0.01 0.01 0.01 0.01
0.14 0.17 0.15 0.12 0.12 0.09 0.05 0.04 0.03 0.02 0.02 0.01 0.00 0.00 0.00 0.00 0.00 0.00 0.00 0.01 0.00 0.00 0.00 0.00 0.00 0.00 0.00 0.00 0.00 0.00 0.00 0.00 0.00 0.00 0.00 0.00 0.00 0.00 0.00 0.00 0.00 0.00 0.00 0.00 0.00 0.01 0.01 0.01 0.01
0.15 0.14 0.13 0.08 0.07 0.07 0.04 0.03 0.02 0.01 0.02 0.02 0.01 0.00 0.00 0.00 0.00 0.00 0.00 0.00 0.00 0.00 0.00 0.00 0.00 0.00 0.00 0.00 0.00 0.00 0.00 0.00 0.00 0.00 0.00 0.00 0.00 0.00 0.00 0.00 0.00 0.00 0.00 0.00 0.00 0.00 0.01 0.01 0.01
0.16 0.16 0.11 0.10 0.08 0.06 0.04 0.03 0.02 0.02 0.04 0.03 0.01 0.00 0.00 0.00 0.00 0.01 0.01 0.01 0.01 0.00 0.00 0.00 0.00 0.00 0.00 0.00 0.00 0.00 0.00 0.00 0.00 0.00 0.00 0.00 0.00 0.00 0.00 0.00 0.00 0.00 0.00 0.00 0.00 0.00 0.00 0.00 0.00
0.15 0.15 0.11 0.09 0.06 0.06 0.04 0.02 0.02 0.02 0.02 0.02 0.01 0.00 0.00 0.00 0.01 0.01 0.01 0.00 0.00 0.00 0.00 0.00 0.00 0.00 0.00 0.00 0.00 0.00 0.00 0.00 0.00 0.00 0.00 0.00 0.00 0.00 0.00 0.00 0.00 0.00 0.00 0.00 0.00 0.00 0.00 0.00 0.00
0.12 0.13 0.09 0.05 0.05 0.04 0.04 0.03 0.03 0.02 0.01 0.01 0.01 0.01 0.00 0.01 0.01 0.01 0.01 0.00 0.00 0.00 0.00 0.00 0.00 0.00 0.00 0.00 0.00 0.00 0.00 0.00 0.00 0.00 0.00 0.00 0.00 0.00 0.00 0.00 0.00 0.00 0.00 0.00 0.00 0.00 0.00 0.00 0.01
0.09 0.11 0.07 0.04 0.04 0.03 0.03 0.03 0.02 0.02 0.01 0.01 0.01 0.01 0.01 0.01 0.01 0.01 0.01 0.00 0.00 0.00 0.00 0.00 0.00 0.00 0.00 0.00 0.00 0.00 0.00 0.00 0.00 0.00 0.00 0.00 0.00 0.00 0.00 0.00 0.00 0.00 0.00 0.00 0.00 0.00 0.00 0.00 0.00
0.05 0.08 0.07 0.05 0.04 0.05 0.04 0.05 0.02 0.02 0.02 0.02 0.01 0.01 0.01 0.01 0.01 0.01 0.01 0.00 0.00 0.00 0.00 0.00 0.00 0.00 0.00 0.00 0.00 0.00 0.00 0.00 0.00 0.00 0.00 0.00 0.00 0.00 0.00 0.00 0.00 0.00 0.00 0.00 0.00 0.00 0.00 0.00 0.00
0.07 0.12 0.11 0.05 0.03 0.04 0.04 0.07 0.05 0.04 0.02 0.01 0.01 0.01 0.01 0.01 0.01 0.01 0.00 0.00 0.00 0.00 0.00 0.00 0.00 0.00 0.00 0.00 0.00 0.00 0.00 0.00 0.00 0.00 0.00 0.00 0.00 0.00 0.00 0.00 0.00 0.00 0.00 0.00 0.00 0.00 0.00 0.00 0.00
0.13 0.15 0.10 0.05 0.02 0.02 0.04 0.06 0.06 0.03 0.01 0.01 0.01 0.01 0.02 0.02 0.02 0.01 0.00 0.00 0.00 0.00 0.00 0.00 0.00 0.00 0.00 0.00 0.00 0.00 0.00 0.00 0.00 0.00 0.00 0.00 0.00 0.00 0.00 0.00 0.00 0.00 0.00 0.00 0.00 0.00 0.00 0.00 0.00
0.12 0.11 0.08 0.07 0.03 0.02 0.02 0.04 0.03 0.02 0.02 0.01 0.01 0.02 0.02 0.02 0.01 0.01 0.00 0.00 0.00 0.00 0.00 0.00 0.00 0.00 0.00 0.00 0.00 0.00 0.00 0.00 0.00 0.00 0.00 0.00 0.00 0.00 0.00 0.00 0.00 0.00 0.00 0.00 0.00 0.00 0.00 0.00 0.01
0.07 0.07 0.06 0.05 0.03 0.02 0.02 0.03 0.02 0.02 0.02 0.02 0.02 0.01 0.02 0.01 0.01 0.01 0.01 0.00 0.00 0.00 0.00 0.00 0.00 0.00 0.00 0.00 0.00 0.00 0.00 0.00 0.00 0.00 0.00 0.00 0.00 0.00 0.00 0.00 0.00 0.00 0.00 0.00 0.00 0.00 0.00 0.01 0.01
0.10 0.09 0.07 0.05 0.03 0.02 0.03 0.04 0.03 0.03 0.02 0.02 0.01 0.01 0.01 0.01 0.01 0.01 0.01 0.01 0.00 0.00 0.00 0.00 0.00 0.00 0.00 0.00 0.00 0.00 0.00 0.00 0.00 0.00 0.00 0.00 0.00 0.00 0.00 0.00 0.00 0.00 0.00 0.00 0.00 0.00 0.01 0.01 0.01
0.13 0.10 0.07 0.04 0.03 0.03 0.04 0.05 0.06 0.04 0.04 0.02 0.01 0.01 0.01 0.02 0.01 0.01 0.01 0.01 0.00 0.00 0.00 0.00 0.01 0.01 0.00 0.00 0.00 0.00 0.00 0.00 0.00 0.00 0.00 0.00 0.00 0.00 0.00 0.00 0.00 0.00 0.00 0.00 0.00 0.00 0.00 0.01 0.00
0.10 0.06 0.05 0.04 0.04 0.05 0.05 0.06 0.05 0.04 0.04 0.03 0.02 0.00 0.00 0.01 0.01 0.01 0.01 0.00 0.00 0.00 0.00 0.01 0.00 0.00 0.00 0.00 0.00 0.00 0.00 0.00 0.00 0.00 0.00 0.00 0.00 0.00 0.00 0.00 0.00 0.00 0.00 0.00 0.00 0.00 0.00 0.01 0.01
0.07 0.05 0.05 0.05 0.05 0.06 0.05 0.06 0.05 0.04 0.03 0.02 0.01 0.00 0.00 0.00 0.01 0.01 0.01 0.01 0.01 0.01 0.00 0.01 0.00 0.00 0.00 0.00 0.00 0.00 0.00 0.00 0.00 0.00 0.00 0.00 0.00 0.00 0.00 0.00 0.00 0.00 0.00 0.00 0.00 0.00 0.01 0.01 0.01
0.04 0.05 0.06 0.07 0.06 0.07 0.07 0.03 0.03 0.02 0.01 0.00 0.00 0.00 0.00 0.00 0.00 0.01 0.01 0.01 0.01 0.00 0.00 0.01 0.00 0.00 0.00 0.00 0.00 0.00 0.00 0.00 0.00 0.00 0.00 0.00 0.00 0.00 0.00 0.00 0.00 0.00 0.00 0.00 0.00 0.00 0.00 0.01 0.01
0.04 0.05 0.07 0.09 0.09 0.08 0.05 0.02 0.01 0.01 0.00 0.00 0.00 0.00 0.00 0.00 0.00 0.00 0.00 0.00 0.00 0.00 0.00 0.00 0.00 0.00 0.00 0.00 0.00 0.00 0.00 0.00 0.00 0.00 0.00 0.00 0.00 0.00 0.00 0.00 0.00 0.00 0.00 0.00 0.00 0.00 0.00 0.00 0.02
0.04 0.04 0.05 0.08 0.09 0.08 0.04 0.02 0.00 0.00 0.00 0.00 0.00 0.00 0.00 0.00 0.00 0.00 0.00 0.00 0.00 0.00 0.00 0.00 0.00 0.00 0.00 0.00 0.00 0.00 0.00 0.00 0.00 0.00 0.00 0.00 0.00 0.00 0.00 0.00 0.00 0.00 0.00 0.00 0.00 0.00 0.00 0.00 0.00
0.03 0.04 0.04 0.04 0.05 0.06 0.04 0.01 0.00 0.00 0.00 0.00 0.00 0.00 0.00 0.00 0.00 0.00 0.00 0.00 0.00 0.00 0.00 0.00 0.00 0.00 0.00 0.00 0.00 0.00 0.00 0.00 0.00 0.00 0.00 0.00 0.00 0.00 0.00 0.00 0.00 0.00 0.00 0.00 0.00 0.00 0.00 0.00 0.00
0.02 0.03 0.03 0.04 0.05 0.04 0.02 0.00 0.00 0.00 0.00 0.00 0.00 0.00 0.00 0.00 0.00 0.00 0.00 0.00 0.00 0.00 0.00 0.00 0.00 0.00 0.00 0.00 0.00 0.00 0.00 0.00 0.00 0.00 0.00 0.00 0.00 0.00 0.00 0.00 0.00 0.01 0.01 0.00 0.00 0.00 0.00 0.00 0.00
0.01 0.02 0.02 0.04 0.04 0.02 0.01 0.00 0.00 0.00 0.00 0.00 0.00 0.00 0.00 0.00 0.00 0.00 0.00 0.00 0.00 0.00 0.00 0.00 0.00 0.00 0.00 0.00 0.00 0.00 0.00 0.00 0.00 0.00 0.00 0.00 0.00 0.00 0.00 0.01 0.00 0.00 0.01 0.01 0.00 0.00 0.00 0.00 0.00
0.01 0.01 0.01 0.03 0.03 0.01 0.01 0.00 0.00 0.00 0.00 0.00 0.00 0.00 0.00 0.00 0.00 0.00 0.00 0.00 0.00 0.00 0.00 0.00 0.00 0.00 0.00 0.00 0.00 0.00 0.00 0.00 0.00 0.00 0.00 0.00 0.00 0.00 0.00 0.01 0.01 0.00 0.01 0.01 0.00 0.00 0.00 0.00 0.00
MSLP
1011.71 1012.56 1013.60 1014.65 1015.50 1016.01 1016.11 1015.82 1015.27 1014.60 1013.99 1013.59 1013.45 1013.56 1013.84 1014.19 1014.46 1014.57 1014.49 1014.22 1013.84 1013.42 1013.06 1012.81 1012.70 1012.72 1012.82 1012.96 1013.10 1013.19 1013.23 1013.23 1013.21 1013.18 1013.17 1013.20 1013.25 1013.32 1013.39 1013.46 1013.49 1013.48 1013.44 1013.35 1013.24 1013.12 1012.99 1012.87 1012.76
1012.03 1013.04 1014.15 1015.17 1015.92 1016.27 1016.19 1015.73 1015.02 1014.25 1013.58 1013.15 1012.99 1013.10 1013.39 1013.74 1014.03 1014.17 1014.14 1013.95 1013.65 1013.33 1013.05 1012.87 1012.81 1012.86 1012.97 1013.12 1013.25 1013.35 1013.41 1013.43 1013.44 1013.44 1013.45 1013.47 1013.50 1013.53 1013.54 1013.54 1013.51 1013.46 1013.39 1013.31 1013.21 1013.10 1012.99 1012.88 1012.76
1012.44 1013.53 1014.64 1015.57 1016.16 1016.33 1016.08 1015.48 1014.69 1013.88 1013.22 1012.80 1012.68 1012.80 1013.09 1013.43 1013.72 1013.86 1013.86 1013.72 1013.50 1013.28 1013.10 1013.00 1013.01 1013.09 1013.21 1013.35 1013.46 1013.55 1013.61 1013.65 1013.67 1013.69 1013.70 1013.71 1013.70 1013.67 1013.62 1013.55 1013.46 1013.38 1013.29 1013.20 1013.13 1013.05 1012.96 1012.87 1012.77
1012.95 1014.04 1015.05 1015.82 1016.22 1016.21 1015.80 1015.12 1014.31 1013.54 1012.95 1012.62 1012.56 1012.72 1013.01 1013.33 1013.58 1013.71 1013.70 1013.60 1013.45 1013.32 1013.23 1013.23 1013.29 1013.40 1013.53 1013.65 1013.74 1013.80 1013.83 1013.86 1013.88 1013.89 1013.90 1013.89 1013.85 1013.77 1013.67 1013.54 1013.41 1013.29 1013.19 1013.11 1013.06 1013.01 1012.96 1012.90 1012.81
1013.54 1014.55 1015.40 1015.96 1016.15 1015.95 1015.44 1014.72 1013.96 1013.30 1012.84 1012.63 1012.67 1012.88 1013.17 1013.45 1013.65 1013.73 1013.71 1013.62 1013.53 1013.46 1013.46 1013.53 1013.65 1013.78 1013.90 1013.99 1014.04 1014.05 1014.04 1014.04 1014.04 1014.05 1014.06 1014.03 1013.97 1013.87 1013.73 1013.56 1013.40 1013.27 1013.16 1013.10 1013.06 1013.03 1013.01 1012.96 1012.89
1014.19 1015.05 1015.69 1016.01 1015.99 1015.64 1015.05 1014.35 1013.69 1013.17 1012.89 1012.84 1012.98 1013.25 1013.54 1013.78 1013.92 1013.94 1013.88 1013.79 1013.72 1013.70 1013.77 1013.89 1014.05 1014.19 1014.29 1014.34 1014.33 1014.28 1014.22 1014.18 1014.17 1014.17 1014.17 1014.15 1014.09 1013.99 1013.84 1013.67 1013.50 1013.35 1013.25 1013.19 1013.15 1013.13 1013.11 1013.06 1012.99
1014.83 1015.51 1015.93 1016.03 1015.81 1015.34 1014.71 1014.07 1013.52 1013.18 1013.07 1013.18 1013.44 1013.76 1014.05 1014.25 1014.32 1014.28 1014.17 1014.06 1013.99 1014.01 1014.11 1014.27 1014.44 1014.58 1014.65 1014.65 1014.58 1014.47 1014.36 1014.29 1014.25 1014.25 1014.26 1014.26 1014.23 1014.14 1014.02 1013.86 1013.70 1013.56 1013.45 1013.38 1013.33 1013.29 1013.24 1013.16 1013.06
1015.41 1015.92 1016.13 1016.04 1015.67 1015.11 1014.47 1013.89 1013.48 1013.29 1013.34 1013.59 1013.94 1014.31 1014.60 1014.76 1014.77 1014.67 1014.52 1014.38 1014.31 1014.34 1014.45 1014.62 1014.79 1014.91 1014.95 1014.90 1014.78 1014.62 1014.47 1014.36 1014.31 1014.31 1014.35 1014.38 1014.38 1014.34 1014.25 1014.12 1013.97 1013.84 1013.72 1013.63 1013.55 1013.47 1013.37 1013.24 1013.09
1015.85 1016.22 1016.29 1016.06 1015.59 1014.98 1014.36 1013.84 1013.53 1013.47 1013.64 1013.98 1014.39 1014.78 1015.07 1015.21 1015.19 1015.05 1014.87 1014.71 1014.63 1014.65 1014.76 1014.92 1015.07 1015.17 1015.18 1015.09 1014.93 1014.74 1014.56 1014.44 1014.38 1014.39 1014.45 1014.51 1014.56 1014.55 1014.50 1014.40 1014.28 1014.15 1014.02 1013.90 1013.78 1013.64 1013.48 1013.30 1013.09
1016.12 1016.41 1016.39 1016.08 1015.57 1014.96 1014.36 1013.90 1013.66 1013.66 1013.89 1014.27 1014.71 1015.11 1015.39 1015.51 1015.48 1015.34 1015.15 1014.99 1014.91 1014.92 1015.01 1015.16 1015.29 1015.36 1015.35 1015.24 1015.07 1014.86 1014.68 1014.55 1014.49 1014.51 1014.58 1014.67 1014.74 1014.77 1014.75 1014.68 1014.57 1014.44 1014.30 1014.15 1013.98 1013.79 1013.58 1013.33 1013.07
1016.22 1016.47 1016.43 1016.12 1015.62 1015.03 1014.47 1014.04 1013.81 1013.83 1014.05 1014.42 1014.84 1015.23 1015.51 1015.64 1015.63 1015.51 1015.35 1015.21 1015.13 1015.13 1015.21 1015.33 1015.44 1015.50 1015.47 1015.37 1015.20 1015.01 1014.83 1014.71 1014.66 1014.68 1014.75 1014.84 1014.93 1014.97 1014.97 1014.91 1014.82 1014.69 1014.53 1014.36 1014.16 1013.93 1013.67 1013.38 1013.08
1016.16 1016.43 1016.42 1016.16 1015.71 1015.16 1014.63 1014.21 1013.98 1013.95 1014.12 1014.43 1014.80 1015.16 1015.44 1015.59 1015.62 1015.56 1015.45 1015.34 1015.28 1015.29 1015.35 1015.45 1015.55 1015.60 1015.58 1015.50 1015.36 1015.20 1015.05 1014.94 1014.90 1014.91 1014.97 1015.04 1015.11 1015.15 1015.15 1015.10 1015.01 1014.88 1014.72 1014.53 1014.31 1014.06 1013.78 1013.47 1013.16
1016.02 1016.33 1016.37 1016.18 1015.81 1015.33 1014.83 1014.41 1014.13 1014.03 1014.11 1014.33 1014.63 1014.95 1015.22 1015.41 1015.50 1015.51 1015.46 1015.41 1015.38 1015.39 1015.45 1015.53 1015.61 1015.67 1015.68 1015.64 1015.55 1015.44 1015.32 1015.24 1015.19 1015.19 1015.22 1015.26 1015.30 1015.32 1015.31 1015.25 1015.16 1015.04 1014.88 1014.69 1014.48 1014.23 1013.95 1013.65 1013.34
1015.85 1016.19 1016.30 1016.19 1015.90 1015.49 1015.03 1014.60 1014.27 1014.09 1014.06 1014.17 1014.39 1014.66 1014.93 1015.15 1015.31 1015.39 1015.42 1015.42 1015.42 1015.44 1015.49 1015.57 1015.65 1015.73 1015.77 1015.78 1015.76 1015.71 1015.64 1015.58 1015.53 1015.50 1015.50 1015.50 1015.50 1015.49 1015.45 1015.40 1015.31 1015.20 1015.05 1014.88 1014.68 1014.45 1014.19 1013.91 1013.62
1015.71 1016.05 1016.21 1016.17 1015.97 1015.63 1015.22 1014.80 1014.43 1014.17 1014.04 1014.05 1014.19 1014.41 1014.66 1014.91 1015.12 1015.26 1015.35 1015.40 1015.42 1015.45 1015.50 1015.57 1015.66 1015.76 1015.85 1015.93 1015.97 1015.98 1015.97 1015.93 1015.88 1015.83 1015.78 1015.74 1015.70 1015.66 1015.62 1015.56 1015.48 1015.39 1015.26 1015.12 1014.94 1014.73 1014.50 1014.25 1014.00
1015.61 1015.92 1016.10 1016.12 1016.00 1015.75 1015.41 1015.02 1014.63 1014.32 1014.12 1014.04 1014.09 1014.25 1014.48 1014.73 1014.97 1015.16 1015.29 1015.36 1015.40 1015.43 1015.47 1015.54 1015.64 1015.77 1015.91 1016.05 1016.17 1016.24 1016.28 1016.26 1016.22 1016.14 1016.06 1015.98 1015.91 1015.85 1015.80 1015.75 1015.69 1015.62 1015.53 1015.41 1015.25 1015.08 1014.87 1014.65 1014.43
1015.55 1015.79 1015.97 1016.05 1016.01 1015.87 1015.61 1015.28 1014.93 1014.59 1014.34 1014.19 1014.16 1014.26 1014.44 1014.67 1014.90 1015.10 1015.24 1015.33 1015.37 1015.39 1015.42 1015.49 1015.60 1015.76 1015.96 1016.16 1016.33 1016.47 1016.54 1016.55 1016.51 1016.42 1016.31 1016.20 1016.11 1016.05 1016.00 1015.97 1015.94 1015.90 1015.84 1015.74 1015.61 1015.45 1015.27 1015.08 1014.88
1015.49 1015.66 1015.83 1015.96 1016.03 1016.01 1015.88 1015.65 1015.34 1015.02 1014.73 1014.52 1014.42 1014.43 1014.55 1014.72 1014.92 1015.10 1015.23 1015.30 1015.33 1015.35 1015.37 1015.44 1015.57 1015.76 1015.99 1016.24 1016.47 1016.65 1016.76 1016.78 1016.74 1016.64 1016.51 1016.39 1016.29 1016.23 1016.20 1016.20 1016.20 1016.20 1016.16 1016.09 1015.98 1015.83 1015.67 1015.49 1015.32
1015.40 1015.52 1015.70 1015.91 1016.11 1016.23 1016.25 1016.13 1015.91 1015.62 1015.31 1015.04 1014.85 1014.77 1014.79 1014.89 1015.02 1015.15 1015.25 1015.30 1015.31 1015.32 1015.34 1015.41 1015.55 1015.76 1016.02 1016.31 1016.57 1016.79 1016.92 1016.95 1016.90 1016.79 1016.66 1016.52 1016.42 1016.37 1016.37 1016.40 1016.44 1016.47 1016.46 1016.41 1016.32 1016.19 1016.04 1015.88 1015.73
1015.29 1015.39 1015.62 1015.95 1016.29 1016.58 1016.75 1016.77 1016.64 1016.37 1016.04 1015.71 1015.42 1015.23 1015.14 1015.13 1015.18 1015.25 1015.30 1015.33 1015.33 1015.32 1015.34 1015.42 1015.56 1015.79 1016.07 1016.38 1016.67 1016.89 1017.04 1017.07 1017.02 1016.89 1016.74 1016.60 1016.50 1016.46 1016.48 1016.54 1016.61 1016.67 1016.70 1016.67 1016.60 1016.49 1016.35 1016.22 1016.10
1015.18 1015.32 1015.65 1016.11 1016.63 1017.09 1017.42 1017.57 1017.51 1017.26 1016.89 1016.48 1016.08 1015.76 1015.55 1015.43 1015.39 1015.40 1015.41 1015.41 1015.40 1015.39 1015.41 1015.49 1015.64 1015.86 1016.15 1016.46 1016.75 1016.98 1017.12 1017.15 1017.09 1016.95 1016.79 1016.63 1016.53 1016.48 1016.51 1016.59 1016.68 1016.77 1016.82 1016.83 1016.78 1016.70 1016.59 1016.49 1016.41
1015.13 1015.36 1015.83 1016.45 1017.14 1017.77 1018.24 1018.48 1018.47 1018.21 1017.79 1017.28 1016.77 1016.32 1015.98 1015.76 1015.64 1015.59 1015.58 1015.57 1015.55 1015.55 1015.57 1015.64 1015.78 1016.00 1016.27 1016.57 1016.85 1017.07 1017.20 1017.22 1017.14 1016.99 1016.81 1016.63 1016.51 1016.45 1016.47 1016.54 1016.65 1016.75 1016.83 1016.87 1016.85 1016.80 1016.74 1016.68 1016.65
1015.18 1015.55 1016.17 1016.95 1017.80 1018.56 1019.14 1019.44 1019.44 1019.15 1018.66 1018.05 1017.42 1016.86 1016.42 1016.11 1015.94 1015.85 1015.82 1015.81 1015.80 1015.80 1015.81 1015.87 1015.99 1016.18 1016.43 1016.70 1016.96 1017.17 1017.28 1017.30 1017.21 1017.04 1016.84 1016.64 1016.48 1016.39 1016.38 1016.43 1016.53 1016.64 1016.73 1016.79 1016.81 1016.80 1016.78 1016.77 1016.79
1015.36 1015.87 1016.63 1017.57 1018.53 1019.39 1020.02 1020.34 1020.32 1019.99 1019.42 1018.72 1018.00 1017.35 1016.84 1016.48 1016.28 1016.18 1016.16 1016.15 1016.15 1016.15 1016.16 1016.19 1016.28 1016.42 1016.63 1016.86 1017.10 1017.29 1017.40 1017.41 1017.32 1017.14 1016.92 1016.69 1016.49 1016.35 1016.29 1016.30 1016.36 1016.45 1016.54 1016.62 1016.67 1016.69 1016.71 1016.74 1016.80
1015.64 1016.27 1017.15 1018.18 1019.22 1020.12 1020.77 1021.07 1021.02 1020.62 1019.99 1019.23 1018.46 1017.78 1017.24 1016.87 1016.67 1016.60 1016.59 1016.61 1016.62 1016.61 1016.59 1016.59 1016.62 1016.72 1016.87 1017.07 1017.27 1017.45 1017.56 1017.58 1017.50 1017.32 1017.08 1016.82 1016.58 1016.38 1016.25 1016.20 1016.21 1016.27 1016.34 1016.41 1016.47 1016.52 1016.56 1016.61 1016.70
1015.94 1016.65 1017.60 1018.67 1019.73 1020.62 1021.24 1021.51 1021.42 1020.99 1020.33 1019.56 1018.79 1018.12 1017.61 1017.28 1017.12 1017.09 1017.12 1017.16 1017.17 1017.15 1017.10 1017.05 1017.04 1017.07 1017.17 1017.33 1017.51 1017.68 1017.80 1017.84 1017.77 1017.61 1017.36 1017.08 1016.79 1016.53 1016.33 1016.20 1016.15 1016.14 1016.17 1016.22 1016.27 1016.31 1016.36 1016.41 1016.49
1016.15 1016.90 1017.86 1018.91 1019.93 1020.78 1021.35 1021.58 1021.46 1021.03 1020.40 1019.67 1018.96 1018.37 1017.94 1017.69 1017.61 1017.63 1017.71 1017.77 1017.80 1017.76 1017.68 1017.58 1017.51 1017.49 1017.54 1017.66 1017.82 1018.00 1018.13 1018.19 1018.16 1018.01 1017.77 1017.47 1017.14 1016.82 1016.55 1016.35 1016.21 1016.14 1016.12 1016.12 1016.14 1016.15 1016.17 1016.19 1016.22
1016.17 1016.90 1017.81 1018.80 1019.74 1020.52 1021.03 1021.23 1021.12 1020.74 1020.19 1019.57 1018.98 1018.51 1018.21 1018.07 1018.08 1018.19 1018.31 1018.41 1018.44 1018.39 1018.28 1018.15 1018.03 1017.97 1017.98 1018.07 1018.22 1018.40 1018.56 1018.65 1018.64 1018.52 1018.29 1017.99 1017.63 1017.27 1016.94 1016.66 1016.45 1016.31 1016.22 1016.16 1016.13 1016.10 1016.06 1016.02 1015.98
1015.93 1016.60 1017.43 1018.31 1019.15 1019.83 1020.29 1020.49 1020.42 1020.13 1019.71 1019.25 1018.84 1018.54 1018.39 1018.38 1018.50 1018.68 1018.86 1018.99 1019.04 1018.99 1018.87 1018.72 1018.58 1018.49 1018.49 1018.56 1018.71 1018.89 1019.06 1019.18 1019.20 1019.10 1018.90 1018.60 1018.23 1017.84 1017.47 1017.13 1016.86 1016.65 1016.50 1016.38 1016.28 1016.19 1016.08 1015.97 1015.84
1015.46 1016.04 1016.75 1017.50 1018.22 1018.82 1019.23 1019.44 1019.45 1019.29 1019.04 1018.76 1018.55 1018.43 1018.44 1018.58 1018.80 1019.05 1019.29 1019.45 1019.53 1019.50 1019.40 1019.26 1019.13 1019.04 1019.03 1019.10 1019.25 1019.43 1019.61 1019.74 1019.78 1019.71 1019.52 1019.24 1018.88 1018.48 1018.08 1017.71 1017.40 1017.14 1016.93 1016.76 1016.60 1016.44 1016.26 1016.07 1015.86
Thickness
5794 5793 5790 5777 5757 5742 5738 5748 5758 5766 5773 5783 5787 5783 5773 5766 5762 5753 5772 5781 5780 5778 5777 5775 5774 5773 5771 5770 5769 5768 5766 5765 5764 5762 5761 5760 5758 5757 5755 5754 5753 5752 5751 5750 5749 5748 5748 5748 5748
5792 5790 5780 5765 5744 5729 5736 5754 5759 5770 5780 5787 5787 5782 5774 5769 5775 5773 5774 5778 5778 5777 5775 5774 5772 5771 5770 5768 5767 5766 5765 5763 5762 5760 5759 5757 5756 5754 5753 5752 5751 5750 5749 5748 5747 5746 5746 5746 5746
5790 5786 5768 5753 5741 5734 5741 5758 5766 5778 5788 5787 5780 5779 5774 5769 5776 5775 5777 5778 5777 5775 5773 5772 5770 5769 5768 5766 5765 5764 5763 5761 5760 5758 5757 5755 5754 5752 5751 5750 5749 5747 5746 5745 5744 5743 5743 5743 5743
5782 5771 5761 5745 5740 5750 5757 5764 5774 5776 5782 5785 5779 5769 5773 5781 5781 5779 5779 5778 5776 5774 5772 5770 5769 5767 5766 5765 5763 5762 5761 5759 5758 5756 5754 5753 5751 5750 5748 5747 5746 5745 5744 5743 5742 5741 5741 5740 5740
5775 5760 5745 5738 5744 5756 5764 5772 5777 5774 5774 5776 5775 5762 5763 5778 5783 5781 5778 5777 5774 5772 5770 5769 5767 5766 5765 5763 5762 5760 5759 5757 5756 5754 5752 5750 5749 5747 5746 5745 5744 5743 5742 5741 5739 5738 5738 5738 5738
5760 5752 5735 5731 5742 5756 5766 5776 5778 5773 5771 5773 5771 5761 5761 5775 5777 5776 5777 5775 5774 5771 5769 5767 5766 5764 5763 5762 5760 5758 5757 5755 5754 5752 5751 5749 5747 5746 5744 5743 5741 5740 5739 5738 5737 5736 5735 5735 5735
5752 5743 5734 5735 5740 5749 5765 5776 5775 5771 5770 5773 5776 5760 5760 5770 5776 5777 5776 5774 5772 5770 5767 5765 5764 5763 5762 5760 5759 5757 5755 5754 5752 5751 5749 5747 5745 5744 5742 5741 5739 5738 5736 5735 5734 5734 5733 5733 5733
5756 5743 5734 5735 5738 5747 5768 5776 5779 5776 5773 5782 5780 5761 5757 5769 5777 5776 5774 5771 5769 5767 5766 5764 5763 5761 5760 5759 5757 5755 5754 5752 5750 5749 5747 5745 5743 5742 5740 5739 5737 5736 5734 5733 5732 5732 5731 5731 5731
5757 5735 5727 5736 5742 5751 5768 5771 5777 5783 5779 5779 5779 5775 5775 5778 5776 5771 5767 5765 5764 5764 5763 5763 5761 5760 5759 5757 5755 5754 5752 5750 5748 5747 5745 5744 5742 5741 5739 5737 5735 5733 5732 5731 5730 5729 5729 5729 5728
5746 5728 5734 5748 5755 5758 5766 5770 5774 5770 5766 5766 5769 5774 5777 5775 5770 5765 5762 5760 5760 5760 5761 5761 5760 5759 5757 5756 5754 5752 5750 5748 5746 5745 5743 5742 5740 5739 5737 5735 5733 5731 5730 5728 5727 5726 5726 5726 5725
5744 5735 5745 5755 5763 5766 5766 5769 5775 5764 5756 5762 5764 5767 5770 5769 5766 5764 5763 5762 5762 5762 5762 5761 5760 5758 5757 5755 5753 5750 5748 5746 5744 5743 5742 5740 5738 5736 5734 5732 5730 5728 5726 5724 5723 5723 5722 5722 5722
5742 5745 5751 5759 5768 5767 5766 5768 5767 5767 5766 5775 5776 5775 5771 5766 5764 5764 5763 5762 5763 5762 5762 5762 5761 5758 5756 5754 5751 5749 5746 5744 5743 5741 5740 5738 5736 5733 5731 5729 5727 5725 5723 5722 5720 5719 5718 5718 5718
5739 5745 5755 5763 5768 5769 5768 5765 5764 5767 5775 5777 5775 5773 5769 5767 5766 5767 5767 5765 5763 5761 5761 5761 5760 5757 5755 5752 5750 5747 5745 5743 5741 5739 5738 5736 5733 5730 5728 5726 5724 5722 5721 5719 5717 5716 5715 5714 5715
5743 5749 5753 5759 5762 5765 5762 5761 5762 5764 5774 5773 5770 5768 5768 5768 5767 5765 5764 5763 5762 5761 5760 5760 5758 5756 5754 5751 5748 5745 5743 5741 5739 5737 5735 5733 5731 5728 5726 5723 5721 5719 5718 5716 5714 5712 5711 5710 5711
5747 5742 5743 5751 5756 5760 5760 5749 5755 5767 5771 5767 5766 5766 5766 5767 5768 5766 5766 5765 5763 5762 5761 5759 5757 5755 5752 5749 5747 5744 5741 5739 5737 5734 5733 5731 5728 5726 5723 5721 5719 5717 5715 5714 5712 5710 5708 5707 5707
5737 5728 5723 5742 5753 5757 5749 5733 5754 5767 5766 5761 5761 5762 5763 5765 5767 5768 5768 5767 5765 5762 5760 5759 5758 5753 5750 5748 5745 5742 5739 5737 5734 5732 5730 5728 5726 5724 5721 5718 5716 5714 5713 5711 5708 5706 5704 5703 5702
5717 5711 5717 5733 5751 5752 5744 5735 5752 5764 5762 5757 5757 5758 5760 5761 5764 5766 5768 5767 5765 5762 5759 5756 5755 5751 5748 5745 5743 5740 5737 5734 5732 5730 5728 5726 5724 5722 5719 5716 5714 5712 5710 5708 5706 5703 5700 5698 5698
5705 5710 5717 5724 5741 5745 5738 5737 5748 5757 5758 5753 5754 5754 5756 5757 5760 5764 5766 5765 5763 5761 5758 5755 5752 5749 5746 5743 5740 5737 5734 5732 5730 5728 5726 5724 5722 5720 5717 5715 5712 5710 5707 5704 5702 5700 5698 5697 5696
5717 5714 5715 5726 5743 5739 5733 5734 5742 5751 5752 5749 5749 5751 5752 5755 5760 5763 5763 5762 5759 5757 5754 5752 5749 5746 5743 5739 5736 5732 5729 5728 5727 5726 5724 5722 5720 5718 5715 5713 5710 5708 5704 5702 5700 5698 5696 5694 5694
5715 5710 5712 5725 5739 5735 5727 5728 5737 5744 5747 5749 5749 5749 5750 5751 5754 5756 5758 5757 5756 5753 5751 5749 5747 5744 5742 5739 5736 5733 5729 5727 5725 5724 5722 5720 5719 5717 5714 5711 5708 5706 5703 5700 5698 5695 5692 5691 5691
5711 5712 5716 5720 5729 5731 5725 5715 5724 5735 5743 5747 5749 5750 5751 5751 5750 5751 5752 5752 5752 5750 5749 5748 5745 5743 5741 5739 5735 5731 5727 5724 5722 5721 5720 5719 5718 5715 5713 5710 5708 5705 5702 5699 5697 5694 5691 5688 5689
5707 5726 5727 5723 5713 5704 5715 5693 5712 5724 5730 5737 5740 5744 5746 5748 5749 5749 5749 5749 5749 5749 5749 5747 5744 5741 5739 5737 5733 5728 5723 5719 5719 5719 5718 5718 5717 5715 5712 5710 5707 5704 5701 5699 5697 5694 5691 5689 5686
5716 5731 5727 5721 5710 5701 5706 5695 5703 5720 5719 5727 5735 5740 5743 5746 5747 5746 5747 5747 5748 5748 5746 5744 5741 5738 5737 5735 5731 5727 5723 5721 5720 5719 5718 5716 5715 5714 5712 5709 5707 5704 5701 5699 5697 5694 5692 5689 5686
5727 5722 5715 5709 5702 5686 5698 5694 5697 5711 5721 5727 5733 5737 5740 5743 5744 5744 5745 5745 5744 5744 5743 5741 5738 5735 5734 5732 5730 5726 5723 5720 5718 5717 5715 5714 5713 5712 5711 5709 5706 5704 5701 5699 5697 5694 5692 5689 5687
5718 5701 5684 5680 5677 5681 5701 5697 5702 5725 5733 5734 5733 5734 5738 5740 5740 5740 5740 5740 5739 5739 5739 5737 5736 5733 5731 5730 5727 5725 5722 5720 5717 5715 5714 5712 5710 5709 5709 5708 5706 5704 5702 5700 5697 5694 5692 5690 5687
5711 5705 5685 5673 5672 5679 5697 5693 5710 5732 5736 5738 5737 5736 5736 5736 5737 5737 5738 5738 5737 5737 5736 5735 5733 5731 5729 5727 5726 5724 5722 5719 5717 5716 5714 5712 5710 5709 5709 5707 5705 5704 5702 5700 5697 5694 5692 5690 5688
5710 5703 5708 5693 5686 5677 5684 5697 5714 5728 5728 5731 5732 5732 5732 5733 5735 5735 5735 5736 5736 5735 5734 5733 5732 5729 5728 5726 5724 5722 5720 5718 5716 5715 5714 5712 5710 5710 5708 5707 5704 5702 5701 5699 5696 5693 5691 5690 5688
5724 5715 5699 5690 5675 5669 5680 5688 5696 5712 5719 5725 5726 5727 5729 5731 5732 5732 5733 5733 5733 5733 5733 5732 5731 5728 5726 5725 5723 5721 5719 5717 5715 5713 5711 5710 5709 5708 5706 5705 5703 5701 5699 5697 5695 5693 5691 5689 5687
5718 5714 5705 5693 5692 5675 5670 5689 5726 5726 5728 5727 5727 5728 5728 5729 5729 5729 5730 5731 5731 5731 5730 5729 5728 5726 5724 5722 5720 5718 5716 5715 5713 5711 5709 5708 5706 5705 5703 5702 5700 5699 5697 5696 5693 5691 5690 5687 5686
5731 5723 5711 5694 5690 5689 5683 5697 5740 5737 5734 5732 5728 5728 5728 5728 5728 5728 5727 5727 5727 5726 5726 5725 5724 5723 5721 5720 5718 5716 5714 5712 5710 5708 5706 5705 5703 5702 5701 5699 5697 5696 5695 5693 5691 5689 5688 5685 5683